This is the latest recevied weather packets stored in our database for station/object KH6DH-13. If no packets are shown the sender has not sent any weather packets the latest 10 day(s).
| Time | Temp. | Humidity | Pressure | Rain* | Wind** | Luminosity | Snow |
|---|---|---|---|---|---|---|---|
| 1788536284 | 23.89° C | - | - | 0.51 mm | 2.24 m/s, 134° | - | - |
| 1788535683 | 23.89° C | - | - | 0 mm | 1.34 m/s, 18° | - | - |
| 1788535082 | 23.89° C | - | - | 0 mm | 2.24 m/s, 73° | - | - |
| 1788534481 | 23.89° C | - | - | 0 mm | 2.24 m/s, 48° | - | - |
| 1788533880 | 24.44° C | - | - | 0 mm | 2.68 m/s, 94° | - | - |
| 1788533279 | 24.44° C | - | - | 0 mm | 0.45 m/s, 356° | - | - |
| 1788532678 | 24.44° C | - | - | 0 mm | 0.45 m/s, 288° | - | - |
| 1788532077 | 24.44° C | - | - | 0 mm | 2.24 m/s, 98° | - | - |
| 1788531476 | 25° C | - | - | 0 mm | 1.34 m/s, 6° | - | - |
| 1788530875 | 25° C | - | - | 0 mm | 1.34 m/s, 25° | - | - |
| 1788530274 | 24.44° C | - | - | 0 mm | 2.24 m/s, 13° | - | - |
| 1788529673 | 25° C | - | - | 0 mm | 1.34 m/s, 38° | - | - |
| 1788529072 | 25° C | - | - | 0 mm | 0.89 m/s, 357° | - | - |
| 1788528471 | 25° C | - | - | 0 mm | 1.34 m/s, 45° | - | - |
| 1788527870 | 24.44° C | - | - | 0 mm | 0.89 m/s, 359° | - | - |
| 1788527269 | 25° C | - | - | 0 mm | 2.68 m/s, 63° | - | - |
| 1788526668 | 25° C | - | - | 0 mm | 1.34 m/s, 49° | - | - |
| 1788526067 | 25° C | - | - | 0 mm | 2.24 m/s, 41° | - | - |
| 1788525466 | 24.44° C | - | - | 0 mm | 2.68 m/s, 97° | - | - |
| 1788524865 | 24.44° C | - | - | 0.25 mm | 0.89 m/s, 323° | - | - |
| 1788524262 | 25° C | - | - | 0.25 mm | 2.24 m/s, 311° | - | - |
| 1788523661 | 24.44° C | - | - | 0.25 mm | 3.13 m/s, 76° | - | - |
| 1788523060 | 24.44° C | - | - | 0.25 mm | 1.34 m/s, 298° | - | - |
| 1788522459 | 24.44° C | - | - | 0.25 mm | 2.24 m/s, 330° | - | - |
| 1788521858 | 25° C | - | - | 0.25 mm | 1.34 m/s, 58° | - | - |
* Rain latest hour (hover to see other rain measurements)
** Current wind speed in m/s (hover to see current wind gust speed)